Location: Brede
(50.9167°N, 0.6000°E)
Time: 01:52:25
(UTC+00:00)

Cosmos 1503 Rocket - Visible Passes

Search period start: 25 November 2020 00:00
Search period end: 05 December 2020 00:00
Orbit: 752 x 791 km, 74.0° (Epoch: 24 November)

Date Brightness Start Highest point End Pass type
(mag) Time Alt. Az. Time Alt. Az. Time Alt. Az.
25 Nov 6.9 02:45:22 12° ENE 02:45:22 12° ENE 02:45:55 10° NE visible
25 Nov 4.8 04:25:45 40° NNE 04:25:45 40° NNE 04:29:08 10° NNE visible
25 Nov 5.5 06:06:08 16° NW 06:07:00 17° NW 06:10:24 10° N visible
26 Nov 5.8 03:51:00 25° NNE 03:51:00 25° NNE 03:53:09 10° NNE visible
26 Nov 5.3 05:31:22 22° NW 05:31:22 22° NW 05:34:49 10° N visible
27 Nov 6.6 03:16:08 15° NE 03:16:08 15° NE 03:17:03 10° NNE visible
27 Nov 5.4 04:56:31 24° NNW 04:56:31 24° NNW 04:59:06 10° N visible
28 Nov 5.9 04:21:34 20° N 04:21:34 20° N 04:23:18 10° NNE visible
28 Nov 5.9 06:01:55 12° NNW 06:01:55 12° NNW 06:03:54 10° N visible
29 Nov 6.4 03:46:34 15° NNE 03:46:34 15° NNE 03:47:24 10° NNE visible
29 Nov 5.9 05:26:55 15° NNW 05:26:55 15° NNW 05:28:37 10° N visible
30 Nov 6.1 04:51:52 15° N 04:51:52 15° N 04:53:03 10° N visible
01 Dec 6.4 04:16:46 13° N 04:16:46 13° N 04:17:21 10° N visible
02 Dec 6.3 05:21:59 10° NNW 05:21:59 10° NNW 05:22:05 10° NNW visible
03 Dec 6.4 04:46:49 10° N 04:46:49 10° N 04:46:51 10° N visible
